Flag for U.S.A. Weather past 2 weeks in Irvine, California, U.S.A.

Now
69 °F

Scattered clouds.


Feels Like: 69 °F
Forecast: 55 / 71 °F
Wind: 10 mph from Southwest

Location: John Wayne Airport-Orange County Airport

Current Time: Jan 31, 2015 at 1:56:23 PM

Latest Report: Jan 31, 2015 at 12:53 PM


Visibility: 10 mi

Pressure: 29.88 "Hg

Humidity: 57%

Dew point: 53 °F

Location of IrvineLocation

Historic Weather in Irvine — Graph

°F

Irvine temperature yesterday

Maximum temperature yesterday: 69 °F (at 11:53 AM)
Minimum temperature yesterday: 63 °F (at 6:53 PM)
Average temperature yesterday: 65 °F

Past Weeks' High & Low Weather Summary

 TemperatureHumidityPressure
High84 °F (Jan 25, 12:53 PM)90% (Jan 20, 1:53 AM)30.24 "Hg (Jan 20, 1:53 AM)
Low49 °F (Jan 23, 6:53 AM)5% (Jan 23, 1:53 PM)29.83 "Hg (Jan 31, 3:53 AM)
Average65 °F53%30.06 "Hg
* Reported Jan 16 11:53 AM — Jan 31 11:53 AM, Irvine, Weather by CustomWeather, © 2014

Note: Actual official high and low records may vary slightly from our data, if they occured in-between our weather recording intervals... More about our weather records

Advertising

Irvine weather history for previous 24 hours

 ConditionsComfort  
Time TempWeatherWind HumidityBarometerVisibility
11:53 AM
Jan 31
69 °FScattered clouds.6 mph57%29.90 "Hg10 mi
10:53 AM67 °FPassing clouds.No wind59%29.92 "Hg10 mi
9:53 AM64 °FPartly sunny.No wind68%29.92 "Hg10 mi
8:53 AM63 °FOvercast.No wind73%29.91 "Hg10 mi
7:53 AM61 °FMostly cloudy.No wind72%29.88 "Hg10 mi
6:53 AM59 °FOvercast.5 mph75%29.87 "Hg10 mi
5:53 AM58 °FClear.No wind78%29.86 "Hg10 mi
4:53 AM59 °FPassing clouds.3 mph78%29.83 "Hg10 mi
4:03 AM61 °FPassing clouds.3 mph72%29.83 "Hg10 mi
3:53 AM60 °FPassing clouds.5 mph78%29.83 "Hg10 mi
2:53 AM60 °FClear.No wind78%29.85 "Hg10 mi
1:53 AM60 °FClear.No wind80%29.85 "Hg10 mi
12:53 AM61 °FPassing clouds.3 mph78%29.86 "Hg10 mi
11:53 PM
Jan 30
63 °FMostly cloudy.3 mph75%29.87 "Hg10 mi
10:53 PM63 °FOvercast.3 mph75%29.87 "Hg10 mi
9:53 PM63 °FMostly cloudy.6 mph75%29.88 "Hg10 mi
8:53 PM63 °FPartly cloudy.5 mph78%29.87 "Hg10 mi
7:53 PM63 °FPassing clouds.5 mph75%29.86 "Hg10 mi
6:53 PM63 °FPartly cloudy.3 mph70%29.86 "Hg10 mi
5:53 PM65 °FPassing clouds.5 mph73%29.85 "Hg10 mi
4:53 PM65 °FOvercast.9 mph76%29.85 "Hg10 mi
3:53 PM68 °FBroken clouds.6 mph55%29.84 "Hg10 mi
2:53 PM68 °FPartly sunny.8 mph51%29.84 "Hg10 mi
1:53 PM68 °FOvercast.8 mph55%29.84 "Hg10 mi
Weather by CustomWeather, © 2014

See weather overviewHow to use our weather pages